TimeMST,TemperatureF,Dew PointF,Humidity,Sea Level PressureIn,VisibilityMPH,Wind Direction,Wind SpeedMPH,Gust SpeedMPH,PrecipitationIn,Events,Conditions,WindDirDegrees,DateUTC
12:53 AM,34.0,8.1,34,30.11,10.0,WSW,28.8,40.3,N/A,,Clear,250,2013-01-04 07:53:00
1:03 AM,33.8,8.6,35,30.04,10.0,WSW,23.0,39.1,N/A,,Clear,250,2013-01-04 08:03:00
1:53 AM,34.0,7.0,32,30.15,10.0,West,36.8,43.7,N/A,,Clear,260,2013-01-04 08:53:00
2:53 AM,30.0,7.0,38,30.21,10.0,West,23.0,32.2,N/A,,Clear,270,2013-01-04 09:53:00
3:53 AM,32.0,5.0,32,30.18,10.0,West,24.2,32.2,N/A,,Clear,270,2013-01-04 10:53:00
5:37 AM,21.2,5.0,50,30.11,10.0,WNW,16.1,-,N/A,,Clear,300,2013-01-04 12:37:00
5:53 AM,21.9,3.9,46,30.24,10.0,NW,19.6,27.6,N/A,,Clear,320,2013-01-04 12:53:00
6:53 AM,30.0,3.9,33,30.23,10.0,West,18.4,-,N/A,,Clear,280,2013-01-04 13:53:00
7:53 AM,33.1,3.9,29,30.19,10.0,West,19.6,-,N/A,,Clear,260,2013-01-04 14:53:00
8:53 AM,28.0,5.0,38,30.23,10.0,NW,17.3,-,N/A,,Clear,310,2013-01-04 15:53:00
9:53 AM,36.0,3.9,26,30.23,10.0,West,15.0,-,N/A,,Clear,260,2013-01-04 16:53:00
10:53 AM,39.0,3.9,23,30.24,10.0,WSW,23.0,32.2,N/A,,Clear,250,2013-01-04 17:53:00
11:53 AM,39.9,3.0,21,30.17,10.0,WSW,20.7,33.4,N/A,,Clear,250,2013-01-04 18:53:00
12:53 PM,41.0,3.9,21,30.15,10.0,WSW,21.9,31.1,N/A,,Clear,250,2013-01-04 19:53:00
1:53 PM,42.1,3.9,21,30.13,10.0,WSW,20.7,27.6,N/A,,Clear,240,2013-01-04 20:53:00
2:53 PM,39.9,5.0,23,30.18,10.0,West,16.1,-,N/A,,Clear,260,2013-01-04 21:53:00
3:53 PM,39.9,8.1,27,30.16,10.0,WSW,17.3,-,N/A,,Clear,250,2013-01-04 22:53:00
4:53 PM,35.1,8.1,33,30.18,10.0,WNW,15.0,24.2,N/A,,Clear,290,2013-01-04 23:53:00
5:53 PM,34.0,6.1,31,30.23,10.0,WSW,23.0,-,N/A,,Clear,240,2013-01-05 00:53:00
6:53 PM,32.0,7.0,35,30.23,10.0,WSW,15.0,-,N/A,,Clear,240,2013-01-05 01:53:00
7:53 PM,30.9,7.0,37,30.24,10.0,West,15.0,-,N/A,,Clear,270,2013-01-05 02:53:00
8:53 PM,30.9,9.0,40,30.26,10.0,West,13.8,-,N/A,,Clear,280,2013-01-05 03:53:00
9:53 PM,25.0,8.1,49,30.26,10.0,WNW,10.4,-,N/A,,Mostly Cloudy,300,2013-01-05 04:53:00
10:53 PM,30.0,10.9,45,30.21,10.0,WSW,18.4,-,N/A,,Clear,250,2013-01-05 05:53:00
11:53 PM,30.9,10.9,43,30.22,10.0,WSW,21.9,-,N/A,,Clear,240,2013-01-05 06:53:00